Location: Norwich
(42.5310°N, 75.5240°W)
Time: 19:07:09
(UTC-04:00)

Envisat - Visible Passes

Search period start: 24 March 2019 00:00
Search period end: 03 April 2019 00:00
Orbit: 764 x 766 km, 98.2° (Epoch: 24 March)

Date Brightness Start Highest point End Pass type
(mag) Time Alt. Az. Time Alt. Az. Time Alt. Az.
24 Mar 4.1 20:05:14 10° S 20:10:07 48° W 20:15:03 10° NNW visible
25 Mar 6.0 21:10:49 10° WSW 21:12:55 12° W 21:15:02 10° WNW visible
26 Mar 5.2 20:31:29 10° SSW 20:35:48 28° W 20:40:08 10° NW visible
27 Mar 3.7 19:53:52 10° S 19:58:52 61° W 20:03:55 10° NNW visible
28 Mar 5.9 20:58:30 10° SW 21:01:34 16° W 21:04:40 10° NW visible
29 Mar 4.8 20:19:54 10° SSW 20:24:30 35° W 20:29:09 10° NNW visible
30 Mar 3.3 19:42:34 10° S 19:47:38 77° WSW 19:52:44 10° NNW visible
31 Mar 5.7 20:46:32 10° SW 20:50:14 20° W 20:53:58 10° NW visible
01 Apr 4.3 20:08:25 10° S 20:13:13 44° W 20:18:05 10° NNW visible
02 Apr 6.1 21:14:35 10° WSW 21:16:05 11° W 21:17:35 10° WNW visible
